Overview Statistics Trail Chart Weather Telemetry Raw packets
 

This is the latest recevied weather packets stored in our database for station/object KD0MAC. If no packets are shown the sender has not sent any weather packets the latest 10 day(s).

<< 39 40 41 42 43 44 45 >>
Time Temp. Humidity Pressure Rain* Wind** Luminosity Snow
1788469725 38.89° C 20% 1009.5 hPa 0 mm - 449 W/m² -
1788469424 39.44° C 19% 1009.5 hPa 0 mm - 459 W/m² -
1788469176 39.44° C 20% 1009.5 hPa 0 mm - 467 W/m² -
1788468877 38.89° C 22% 1009.5 hPa 0 mm - 475 W/m² -
1788468575 38.89° C 24% 1009.5 hPa 0 mm - 485 W/m² -
1788468238 39.44° C 20% 1009.5 hPa 0 mm - 494 W/m² -
1788467924 39.44° C 22% 1009.5 hPa 0 mm - 505 W/m² -
1788467675 38.89° C 22% 1009.5 hPa 0 mm - 513 W/m² -
1788467625 38.89° C 22% 1009.5 hPa 0 mm - 513 W/m² -
1788467324 38.89° C 24% 1009.5 hPa 0 mm - 519 W/m² -
1788467077 38.89° C 24% 1009.8 hPa 0 mm - 526 W/m² -
1788467024 38.89° C 24% 1009.8 hPa 0 mm - 526 W/m² -
1788466725 38.89° C 22% 1009.5 hPa 0 mm - 533 W/m² -
1788466425 38.89° C 23% 1009.8 hPa 0 mm - 509 W/m² -
1788466124 38.89° C 21% 1009.8 hPa 0 mm - 516 W/m² -
1788465826 38.89° C 22% 1009.8 hPa 0 mm - 520 W/m² -
1788465524 38.89° C 21% 1009.8 hPa 0 mm - 524 W/m² -
1788465225 38.33° C 23% 1009.8 hPa 0 mm - 530 W/m² -
1788464976 38.33° C 24% 1009.8 hPa 0 mm - 536 W/m² -
1788464925 38.33° C 24% 1009.8 hPa 0 mm - 536 W/m² -
1788464677 38.33° C 22% 1009.8 hPa 0 mm - 539 W/m² -
1788464625 38.33° C 22% 1009.8 hPa 0 mm - 539 W/m² -
1788464376 38.33° C 23% 1009.8 hPa 0 mm - 542 W/m² -
1788464075 38.33° C 23% 1010.2 hPa 0 mm - 543 W/m² -
1788463775 38.33° C 25% 1009.8 hPa 0 mm - 549 W/m² -

* Rain latest hour (hover to see other rain measurements)
** Current wind speed in m/s (hover to see current wind gust speed)